Time,TemperatureF,DewpointF,PressureIn,WindDirection,WindDirectionDegrees,WindSpeedMPH,WindSpeedGustMPH,Humidity,HourlyPrecipIn,Conditions,Clouds,dailyrainin,SoftwareType,DateUTC
2013-03-14 00:00:00,28.6,18.0,30.27,NW,318,3.0,4.0,64,0.00,,,0.00,Wunderground v.1.15,2013-03-14 04:00:00,
2013-03-14 00:01:00,28.6,17.6,30.27,WNW,301,9.0,9.0,63,0.00,,,0.00,Wunderground v.1.15,2013-03-14 04:01:00,
2013-03-14 00:07:00,28.5,17.5,30.27,NW,309,6.0,10.0,63,0.00,,,0.00,Wunderground v.1.15,2013-03-14 04:07:00,
2013-03-14 00:08:00,28.5,17.5,30.27,WNW,298,5.0,10.0,63,0.00,,,0.00,Wunderground v.1.15,2013-03-14 04:08:00,
2013-03-14 00:13:00,28.4,17.4,30.27,WNW,297,9.0,10.0,63,0.00,,,0.00,Wunderground v.1.15,2013-03-14 04:13:00,
2013-03-14 00:18:00,28.3,17.3,30.28,North,360,0.0,10.0,63,0.00,,,0.00,Wunderground v.1.15,2013-03-14 04:18:00,
2013-03-14 00:23:00,28.2,17.2,30.27,NNW,348,3.0,8.0,63,0.00,,,0.00,Wunderground v.1.15,2013-03-14 04:23:00,
2013-03-14 00:29:00,28.0,17.4,30.28,NW,325,7.0,8.0,64,0.00,,,0.00,Wunderground v.1.15,2013-03-14 04:29:00,
2013-03-14 00:34:00,27.9,17.3,30.27,NW,309,1.0,5.0,64,0.00,,,0.00,Wunderground v.1.15,2013-03-14 04:34:00,
2013-03-14 00:39:00,27.8,17.2,30.27,West,277,4.0,6.0,64,0.00,,,0.00,Wunderground v.1.15,2013-03-14 04:39:00,
2013-03-14 00:44:00,27.7,17.1,30.27,WSW,250,5.0,5.0,64,0.00,,,0.00,Wunderground v.1.15,2013-03-14 04:44:00,
2013-03-14 00:49:00,27.6,17.0,30.27,WNW,302,2.0,7.0,64,0.00,,,0.00,Wunderground v.1.15,2013-03-14 04:49:00,
2013-03-14 00:55:00,27.4,16.8,30.27,NW,318,3.0,4.0,64,0.00,,,0.00,Wunderground v.1.15,2013-03-14 04:55:00,
2013-03-14 01:00:00,27.2,17.0,30.27,NNW,336,2.0,3.0,65,0.00,,,0.00,Wunderground v.1.15,2013-03-14 05:00:00,
2013-03-14 01:06:00,27.2,17.0,30.27,WNW,284,0.0,4.0,65,0.00,,,0.00,Wunderground v.1.15,2013-03-14 05:06:00,
2013-03-14 01:11:00,27.0,16.8,30.27,NW,312,0.0,2.0,65,0.00,,,0.00,Wunderground v.1.15,2013-03-14 05:11:00,
2013-03-14 01:16:00,26.9,17.0,30.27,WNW,291,0.0,6.0,66,0.00,,,0.00,Wunderground v.1.15,2013-03-14 05:16:00,
2013-03-14 01:21:00,26.8,17.0,30.27,NW,315,0.0,10.0,66,0.00,,,0.00,Wunderground v.1.15,2013-03-14 05:21:00,
2013-03-14 01:26:00,26.7,16.9,30.27,WNW,287,4.0,10.0,66,0.00,,,0.00,Wunderground v.1.15,2013-03-14 05:26:00,
2013-03-14 01:31:00,26.7,16.9,30.27,WNW,291,4.0,4.0,66,0.00,,,0.00,Wunderground v.1.15,2013-03-14 05:31:00,
2013-03-14 01:36:00,26.6,16.8,30.27,WNW,297,3.0,6.0,66,0.00,,,0.00,Wunderground v.1.15,2013-03-14 05:36:00,
2013-03-14 01:41:00,26.5,16.7,30.27,West,273,5.0,8.0,66,0.00,,,0.00,Wunderground v.1.15,2013-03-14 05:41:00,
2013-03-14 01:46:00,26.5,16.7,30.27,SW,219,4.0,8.0,66,0.00,,,0.00,Wunderground v.1.15,2013-03-14 05:46:00,
2013-03-14 01:52:00,26.4,16.6,30.27,NNW,331,2.0,5.0,66,0.00,,,0.00,Wunderground v.1.15,2013-03-14 05:52:00,
2013-03-14 01:57:00,26.3,16.5,30.27,NW,305,0.0,5.0,66,0.00,,,0.00,Wunderground v.1.15,2013-03-14 05:57:00,
2013-03-14 02:02:00,26.3,16.5,30.27,WNW,291,1.0,10.0,66,0.00,,,0.00,Wunderground v.1.15,2013-03-14 06:02:00,
2013-03-14 02:07:00,26.2,16.0,30.27,WNW,294,7.0,10.0,65,0.00,,,0.00,Wunderground v.1.15,2013-03-14 06:07:00,
2013-03-14 02:12:00,26.1,15.9,30.27,WNW,287,5.0,11.0,65,0.00,,,0.00,Wunderground v.1.15,2013-03-14 06:12:00,
2013-03-14 02:17:00,26.1,15.6,30.28,West,281,1.0,11.0,64,0.00,,,0.00,Wunderground v.1.15,2013-03-14 06:17:00,
2013-03-14 02:22:00,26.0,15.1,30.28,WNW,287,4.0,10.0,63,0.00,,,0.00,Wunderground v.1.15,2013-03-14 06:22:00,
2013-03-14 02:27:00,26.0,15.1,30.28,West,277,8.0,10.0,63,0.00,,,0.00,Wunderground v.1.15,2013-03-14 06:27:00,
2013-03-14 02:32:00,26.0,15.5,30.28,SW,218,0.0,5.0,64,0.00,,,0.00,Wunderground v.1.15,2013-03-14 06:32:00,
2013-03-14 02:37:00,25.8,15.3,30.28,NW,313,5.0,10.0,64,0.00,,,0.00,Wunderground v.1.15,2013-03-14 06:37:00,
2013-03-14 02:42:00,25.8,15.3,30.28,West,279,2.0,6.0,64,0.00,,,0.00,Wunderground v.1.15,2013-03-14 06:42:00,
2013-03-14 02:47:00,25.7,15.6,30.28,West,278,3.0,10.0,65,0.00,,,0.00,Wunderground v.1.15,2013-03-14 06:47:00,
2013-03-14 02:52:00,25.6,15.5,30.29,WNW,293,6.0,9.0,65,0.00,,,0.00,Wunderground v.1.15,2013-03-14 06:52:00,
2013-03-14 02:57:00,25.5,15.4,30.28,NW,306,5.0,11.0,65,0.00,,,0.00,Wunderground v.1.15,2013-03-14 06:57:00,
2013-03-14 03:02:00,25.5,15.4,30.29,WNW,302,3.0,9.0,65,0.00,,,0.00,Wunderground v.1.15,2013-03-14 07:02:00,
2013-03-14 03:07:00,25.4,15.3,30.29,West,277,2.0,10.0,65,0.00,,,0.00,Wunderground v.1.15,2013-03-14 07:07:00,
2013-03-14 03:12:00,25.3,15.5,30.29,WNW,284,1.0,7.0,66,0.00,,,0.00,Wunderground v.1.15,2013-03-14 07:12:00,
2013-03-14 03:17:00,25.2,15.4,30.30,WNW,285,1.0,9.0,66,0.00,,,0.00,Wunderground v.1.15,2013-03-14 07:17:00,
2013-03-14 07:32:00,23.1,14.8,30.33,South,188,4.0,4.0,70,0.00,,,0.00,Wunderground v.1.15,2013-03-14 11:32:00,
2013-03-14 07:37:00,23.3,15.0,30.33,South,180,3.0,8.0,70,0.00,,,0.00,Wunderground v.1.15,2013-03-14 11:37:00,
2013-03-14 07:42:00,23.4,15.1,30.33,SSE,162,7.0,7.0,70,0.00,,,0.00,Wunderground v.1.15,2013-03-14 11:42:00,
2013-03-14 07:47:00,23.6,14.9,30.33,South,175,1.0,10.0,69,0.00,,,0.00,Wunderground v.1.15,2013-03-14 11:47:00,
2013-03-14 07:52:00,23.7,14.7,30.33,WSW,243,0.0,6.0,68,0.00,,,0.00,Wunderground v.1.15,2013-03-14 11:52:00,
2013-03-14 07:58:00,23.9,14.9,30.33,SSW,213,1.0,8.0,68,0.00,,,0.00,Wunderground v.1.15,2013-03-14 11:58:00,
2013-03-14 08:03:00,23.9,15.2,30.33,WSW,238,0.0,6.0,69,0.00,,,0.00,Wunderground v.1.15,2013-03-14 12:03:00,
2013-03-14 08:08:00,23.7,15.0,30.33,SSW,200,4.0,11.0,69,0.00,,,0.00,Wunderground v.1.15,2013-03-14 12:08:00,
2013-03-14 08:13:00,23.6,15.2,30.34,SSW,205,2.0,5.0,70,0.00,,,0.00,Wunderground v.1.15,2013-03-14 12:13:00,
2013-03-14 08:18:00,23.4,15.1,30.34,SW,217,0.0,8.0,70,0.00,,,0.00,Wunderground v.1.15,2013-03-14 12:18:00,
2013-03-14 08:23:00,23.3,15.0,30.34,SSW,201,0.0,5.0,70,0.00,,,0.00,Wunderground v.1.15,2013-03-14 12:23:00,
2013-03-14 08:28:00,23.3,15.3,30.34,South,189,3.0,5.0,71,0.00,,,0.00,Wunderground v.1.15,2013-03-14 12:28:00,
2013-03-14 08:33:00,23.3,15.3,30.34,SW,223,1.0,2.0,71,0.00,,,0.00,Wunderground v.1.15,2013-03-14 12:33:00,
2013-03-14 08:38:00,23.3,15.3,30.34,WNW,282,0.0,6.0,71,0.00,,,0.00,Wunderground v.1.15,2013-03-14 12:38:00,
2013-03-14 08:43:00,23.4,15.4,30.34,WSW,252,0.0,5.0,71,0.00,,,0.00,Wunderground v.1.15,2013-03-14 12:43:00,
2013-03-14 08:48:00,23.5,15.5,30.34,SSW,209,3.0,5.0,71,0.00,,,0.00,Wunderground v.1.15,2013-03-14 12:48:00,
2013-03-14 08:53:00,23.7,15.3,30.34,SSE,155,1.0,6.0,70,0.00,,,0.00,Wunderground v.1.15,2013-03-14 12:53:00,
2013-03-14 08:58:00,23.9,15.5,30.34,West,271,0.0,7.0,70,0.00,,,0.00,Wunderground v.1.15,2013-03-14 12:58:00,
2013-03-14 09:03:00,24.1,15.4,30.34,South,187,0.0,6.0,69,0.00,,,0.00,Wunderground v.1.15,2013-03-14 13:03:00,
2013-03-14 09:08:00,24.3,15.6,30.34,West,272,4.0,8.0,69,0.00,,,0.00,Wunderground v.1.15,2013-03-14 13:08:00,
2013-03-14 09:13:00,24.6,15.5,30.34,South,187,0.0,4.0,68,0.00,,,0.00,Wunderground v.1.15,2013-03-14 13:13:00,
2013-03-14 09:18:00,24.8,15.7,30.34,WSW,252,0.0,7.0,68,0.00,,,0.00,Wunderground v.1.15,2013-03-14 13:18:00,
2013-03-14 09:23:00,25.0,15.9,30.34,WSW,246,7.0,7.0,68,0.00,,,0.00,Wunderground v.1.15,2013-03-14 13:23:00,
2013-03-14 09:28:00,25.3,16.2,30.34,SSW,193,1.0,7.0,68,0.00,,,0.00,Wunderground v.1.15,2013-03-14 13:28:00,
2013-03-14 09:33:00,25.6,16.2,30.34,WSW,252,0.0,7.0,67,0.00,,,0.00,Wunderground v.1.15,2013-03-14 13:33:00,
2013-03-14 09:38:00,25.9,16.1,30.35,West,270,0.0,7.0,66,0.00,,,0.00,Wunderground v.1.15,2013-03-14 13:38:00,
2013-03-14 09:43:00,26.2,16.4,30.35,WSW,248,0.0,5.0,66,0.00,,,0.00,Wunderground v.1.15,2013-03-14 13:43:00,
2013-03-14 09:48:00,26.7,16.5,30.35,West,268,0.0,7.0,65,0.00,,,0.00,Wunderground v.1.15,2013-03-14 13:48:00,
2013-03-14 09:53:00,27.0,16.8,30.35,South,173,0.0,4.0,65,0.00,,,0.00,Wunderground v.1.15,2013-03-14 13:53:00,
2013-03-14 09:58:00,27.4,16.8,30.36,NW,306,2.0,9.0,64,0.00,,,0.00,Wunderground v.1.15,2013-03-14 13:58:00,
2013-03-14 10:03:00,27.9,16.9,30.36,WSW,258,0.0,7.0,63,0.00,,,0.00,Wunderground v.1.15,2013-03-14 14:03:00,
2013-03-14 10:08:00,28.4,17.0,30.36,WNW,295,3.0,7.0,62,0.00,,,0.00,Wunderground v.1.15,2013-03-14 14:08:00,
2013-03-14 10:13:00,28.7,16.9,30.36,SW,229,2.0,6.0,61,0.00,,,0.00,Wunderground v.1.15,2013-03-14 14:13:00,
2013-03-14 10:18:00,29.1,16.9,30.36,WNW,295,0.0,9.0,60,0.00,,,0.00,Wunderground v.1.15,2013-03-14 14:18:00,
2013-03-14 10:23:00,29.5,16.9,30.36,SW,223,5.0,6.0,59,0.00,,,0.00,Wunderground v.1.15,2013-03-14 14:23:00,
2013-03-14 10:28:00,29.7,17.1,30.36,WSW,240,0.0,6.0,59,0.00,,,0.00,Wunderground v.1.15,2013-03-14 14:28:00,
2013-03-14 10:33:00,30.1,17.1,30.37,SW,222,0.0,8.0,58,0.00,,,0.00,Wunderground v.1.15,2013-03-14 14:33:00,
2013-03-14 10:38:00,30.6,16.7,30.37,South,186,2.0,8.0,56,0.00,,,0.00,Wunderground v.1.15,2013-03-14 14:38:00,
2013-03-14 10:43:00,30.8,16.9,30.37,NW,306,2.0,7.0,56,0.00,,,0.00,Wunderground v.1.15,2013-03-14 14:43:00,
2013-03-14 10:49:00,31.2,16.9,30.37,WSW,252,0.0,8.0,55,0.00,,,0.00,Wunderground v.1.15,2013-03-14 14:49:00,
2013-03-14 10:54:00,31.8,17.5,30.37,NW,306,1.0,5.0,55,0.00,,,0.00,Wunderground v.1.15,2013-03-14 14:54:00,
2013-03-14 10:59:00,32.6,17.3,30.37,WNW,296,4.0,7.0,53,0.00,,,0.00,Wunderground v.1.15,2013-03-14 14:59:00,
2013-03-14 11:04:00,32.9,17.2,30.37,WNW,300,4.0,8.0,52,0.00,,,0.00,Wunderground v.1.15,2013-03-14 15:04:00,
2013-03-14 11:09:00,33.3,18.0,30.37,NNW,329,5.0,8.0,53,0.00,,,0.00,Wunderground v.1.15,2013-03-14 15:09:00,
2013-03-14 11:14:00,33.9,16.7,30.37,WSW,253,0.0,8.0,49,0.00,,,0.00,Wunderground v.1.15,2013-03-14 15:14:00,
2013-03-14 11:19:00,34.4,18.1,30.37,WNW,294,7.0,8.0,51,0.00,,,0.00,Wunderground v.1.15,2013-03-14 15:19:00,
2013-03-14 11:24:00,34.7,17.5,30.37,SW,225,0.0,6.0,49,0.00,,,0.00,Wunderground v.1.15,2013-03-14 15:24:00,
2013-03-14 11:29:00,35.3,17.1,30.37,West,271,4.0,7.0,47,0.00,,,0.00,Wunderground v.1.15,2013-03-14 15:29:00,
2013-03-14 11:34:00,35.4,16.6,30.36,West,269,2.0,7.0,46,0.00,,,0.00,Wunderground v.1.15,2013-03-14 15:34:00,
2013-03-14 11:39:00,35.6,17.3,30.36,SW,217,0.0,8.0,47,0.00,,,0.00,Wunderground v.1.15,2013-03-14 15:39:00,
2013-03-14 11:44:00,36.0,16.7,30.36,SW,218,1.0,8.0,45,0.00,,,0.00,Wunderground v.1.15,2013-03-14 15:44:00,
2013-03-14 11:49:00,36.3,16.4,30.36,WNW,294,4.0,8.0,44,0.00,,,0.00,Wunderground v.1.15,2013-03-14 15:49:00,
2013-03-14 11:54:00,36.6,17.2,30.36,West,263,0.0,6.0,45,0.00,,,0.00,Wunderground v.1.15,2013-03-14 15:54:00,
2013-03-14 11:59:00,36.9,17.0,30.35,West,277,2.0,8.0,44,0.00,,,0.00,Wunderground v.1.15,2013-03-14 15:59:00,
2013-03-14 12:04:00,37.3,16.8,30.36,WNW,288,3.0,3.0,43,0.00,,,0.00,Wunderground v.1.15,2013-03-14 16:04:00,
2013-03-14 12:09:00,37.8,17.3,30.35,WNW,294,0.0,6.0,43,0.00,,,0.00,Wunderground v.1.15,2013-03-14 16:09:00,
2013-03-14 12:14:00,38.1,18.1,30.35,NE,36,0.0,5.0,44,0.00,,,0.00,Wunderground v.1.15,2013-03-14 16:14:00,
2013-03-14 12:19:00,38.4,16.7,30.36,WNW,287,3.0,9.0,41,0.00,,,0.00,Wunderground v.1.15,2013-03-14 16:19:00,
2013-03-14 12:24:00,38.5,17.4,30.36,WNW,283,0.0,7.0,42,0.00,,,0.00,Wunderground v.1.15,2013-03-14 16:24:00,
2013-03-14 12:29:00,38.9,17.2,30.37,SW,215,1.0,8.0,41,0.00,,,0.00,Wunderground v.1.15,2013-03-14 16:29:00,
2013-03-14 12:34:00,39.3,18.6,30.37,WNW,301,3.0,10.0,43,0.00,,,0.00,Wunderground v.1.15,2013-03-14 16:34:00,
2013-03-14 12:39:00,39.6,17.8,30.37,West,262,6.0,10.0,41,0.00,,,0.00,Wunderground v.1.15,2013-03-14 16:39:00,
2013-03-14 12:44:00,40.0,18.2,30.37,West,272,0.0,8.0,41,0.00,,,0.00,Wunderground v.1.15,2013-03-14 16:44:00,
2013-03-14 12:49:00,40.6,18.1,30.37,WNW,295,4.0,8.0,40,0.00,,,0.00,Wunderground v.1.15,2013-03-14 16:49:00,
2013-03-14 12:54:00,40.6,17.5,30.37,SSW,196,2.0,10.0,39,0.00,,,0.00,Wunderground v.1.15,2013-03-14 16:54:00,
2013-03-14 12:59:00,40.5,18.0,30.37,NW,304,1.0,10.0,40,0.00,,,0.00,Wunderground v.1.15,2013-03-14 16:59:00,
2013-03-14 13:04:00,41.1,19.7,30.37,WNW,288,6.0,7.0,42,0.00,,,0.00,Wunderground v.1.15,2013-03-14 17:04:00,
2013-03-14 13:09:00,41.7,17.9,30.37,WNW,296,1.0,7.0,38,0.00,,,0.00,Wunderground v.1.15,2013-03-14 17:09:00,
2013-03-14 13:14:00,41.5,17.7,30.36,WNW,287,4.0,7.0,38,0.00,,,0.00,Wunderground v.1.15,2013-03-14 17:14:00,
2013-03-14 13:19:00,41.7,19.1,30.36,WNW,296,6.0,7.0,40,0.00,,,0.00,Wunderground v.1.15,2013-03-14 17:19:00,
2013-03-14 13:24:00,42.3,17.8,30.36,WNW,303,7.0,8.0,37,0.00,,,0.00,Wunderground v.1.15,2013-03-14 17:24:00,
2013-03-14 13:29:00,42.5,19.8,30.35,North,360,1.0,10.0,40,0.00,,,0.00,Wunderground v.1.15,2013-03-14 17:29:00,
2013-03-14 13:34:00,42.6,18.7,30.34,South,186,2.0,8.0,38,0.00,,,0.00,Wunderground v.1.15,2013-03-14 17:34:00,
2013-03-14 13:39:00,42.9,17.7,30.35,NNW,331,0.0,8.0,36,0.00,,,0.00,Wunderground v.1.15,2013-03-14 17:39:00,
2013-03-14 13:44:00,43.3,18.7,30.35,West,281,0.0,4.0,37,0.00,,,0.00,Wunderground v.1.15,2013-03-14 17:44:00,
2013-03-14 13:49:00,43.8,17.9,30.35,NW,323,4.0,16.0,35,0.00,,,0.00,Wunderground v.1.15,2013-03-14 17:49:00,
2013-03-14 13:54:00,43.7,19.7,30.34,NNW,344,8.0,8.0,38,0.00,,,0.00,Wunderground v.1.15,2013-03-14 17:54:00,
2013-03-14 13:59:00,44.2,18.2,30.34,WSW,257,4.0,8.0,35,0.00,,,0.00,Wunderground v.1.15,2013-03-14 17:59:00,
2013-03-14 14:04:00,44.1,18.2,30.34,West,277,1.0,7.0,35,0.00,,,0.00,Wunderground v.1.15,2013-03-14 18:04:00,
2013-03-14 14:09:00,43.8,17.9,30.34,West,270,0.0,7.0,35,0.00,,,0.00,Wunderground v.1.15,2013-03-14 18:09:00,
2013-03-14 14:14:00,44.0,19.4,30.34,WNW,290,8.0,10.0,37,0.00,,,0.00,Wunderground v.1.15,2013-03-14 18:14:00,
2013-03-14 14:19:00,44.5,19.2,30.34,NW,309,0.0,10.0,36,0.00,,,0.00,Wunderground v.1.15,2013-03-14 18:19:00,
2013-03-14 14:24:00,45.1,18.4,30.33,WNW,283,5.0,9.0,34,0.00,,,0.00,Wunderground v.1.15,2013-03-14 18:24:00,
2013-03-14 14:29:00,44.9,18.2,30.33,NW,306,2.0,9.0,34,0.00,,,0.00,Wunderground v.1.15,2013-03-14 18:29:00,
2013-03-14 14:34:00,45.4,18.6,30.33,WNW,294,2.0,11.0,34,0.00,,,0.00,Wunderground v.1.15,2013-03-14 18:34:00,
2013-03-14 14:39:00,45.8,19.0,30.33,WSW,238,0.0,13.0,34,0.00,,,0.00,Wunderground v.1.15,2013-03-14 18:39:00,
2013-03-14 14:44:00,46.4,19.5,30.33,NNW,327,4.0,11.0,34,0.00,,,0.00,Wunderground v.1.15,2013-03-14 18:44:00,
2013-03-14 14:49:00,46.8,19.2,30.32,NNW,342,2.0,11.0,33,0.00,,,0.00,Wunderground v.1.15,2013-03-14 18:49:00,
2013-03-14 14:54:00,46.7,18.4,30.32,SW,229,2.0,10.0,32,0.00,,,0.00,Wunderground v.1.15,2013-03-14 18:54:00,
2013-03-14 14:59:00,46.9,19.3,30.32,NNE,16,8.0,10.0,33,0.00,,,0.00,Wunderground v.1.15,2013-03-14 18:59:00,
2013-03-14 15:04:00,47.0,20.7,30.32,NNW,346,2.0,11.0,35,0.00,,,0.00,Wunderground v.1.15,2013-03-14 19:04:00,
2013-03-14 15:09:00,48.0,20.2,30.32,West,269,7.0,11.0,33,0.00,,,0.00,Wunderground v.1.15,2013-03-14 19:09:00,
2013-03-14 15:14:00,47.9,19.4,30.32,West,281,3.0,8.0,32,0.00,,,0.00,Wunderground v.1.15,2013-03-14 19:14:00,
2013-03-14 15:19:00,47.3,19.6,30.31,NW,309,2.0,9.0,33,0.00,,,0.00,Wunderground v.1.15,2013-03-14 19:19:00,
2013-03-14 15:24:00,47.3,18.9,30.31,NNW,335,1.0,9.0,32,0.00,,,0.00,Wunderground v.1.15,2013-03-14 19:24:00,
2013-03-14 15:29:00,47.9,18.7,30.31,WNW,298,6.0,18.0,31,0.00,,,0.00,Wunderground v.1.15,2013-03-14 19:29:00,
2013-03-14 15:34:00,47.7,20.0,30.31,NW,310,0.0,10.0,33,0.00,,,0.00,Wunderground v.1.15,2013-03-14 19:34:00,
2013-03-14 15:40:00,47.5,18.3,30.30,WSW,241,7.0,11.0,31,0.00,,,0.00,Wunderground v.1.15,2013-03-14 19:40:00,
2013-03-14 15:45:00,47.1,18.7,30.30,NW,324,1.0,6.0,32,0.00,,,0.00,Wunderground v.1.15,2013-03-14 19:45:00,
2013-03-14 15:50:00,46.8,19.9,30.29,WNW,302,4.0,7.0,34,0.00,,,0.00,Wunderground v.1.15,2013-03-14 19:50:00,
2013-03-14 15:55:00,46.7,17.6,30.29,NW,325,4.0,9.0,31,0.00,,,0.00,Wunderground v.1.15,2013-03-14 19:55:00,
2013-03-14 16:00:00,46.9,19.3,30.29,WNW,292,0.0,11.0,33,0.00,,,0.00,Wunderground v.1.15,2013-03-14 20:00:00,
2013-03-14 16:05:00,47.8,20.1,30.30,WNW,290,6.0,8.0,33,0.00,,,0.00,Wunderground v.1.15,2013-03-14 20:05:00,
2013-03-14 16:10:00,47.8,17.8,30.30,NNW,335,6.0,8.0,30,0.00,,,0.00,Wunderground v.1.15,2013-03-14 20:10:00,
2013-03-14 16:15:00,47.3,17.4,30.29,NW,319,7.0,10.0,30,0.00,,,0.00,Wunderground v.1.15,2013-03-14 20:15:00,
2013-03-14 16:20:00,47.0,19.3,30.29,West,279,5.0,5.0,33,0.00,,,0.00,Wunderground v.1.15,2013-03-14 20:20:00,
2013-03-14 16:25:00,47.3,17.4,30.29,WNW,296,0.0,9.0,30,0.00,,,0.00,Wunderground v.1.15,2013-03-14 20:25:00,
2013-03-14 16:30:00,47.5,19.8,30.29,North,5,0.0,3.0,33,0.00,,,0.00,Wunderground v.1.15,2013-03-14 20:30:00,
2013-03-14 16:35:00,48.0,18.0,30.30,NNW,334,7.0,14.0,30,0.00,,,0.00,Wunderground v.1.15,2013-03-14 20:35:00,
2013-03-14 16:40:00,48.0,18.0,30.29,NNW,336,7.0,7.0,30,0.00,,,0.00,Wunderground v.1.15,2013-03-14 20:40:00,
2013-03-14 16:45:00,47.4,17.5,30.30,WNW,285,5.0,10.0,30,0.00,,,0.00,Wunderground v.1.15,2013-03-14 20:45:00,
2013-03-14 16:50:00,46.9,17.8,30.30,NW,308,7.0,8.0,31,0.00,,,0.00,Wunderground v.1.15,2013-03-14 20:50:00,
2013-03-14 16:55:00,46.9,19.3,30.30,West,266,4.0,10.0,33,0.00,,,0.00,Wunderground v.1.15,2013-03-14 20:55:00,
2013-03-14 17:00:00,47.8,18.6,30.29,NNE,26,0.0,4.0,31,0.00,,,0.00,Wunderground v.1.15,2013-03-14 21:00:00,
2013-03-14 17:05:00,48.2,17.4,30.30,West,275,2.0,13.0,29,0.00,,,0.00,Wunderground v.1.15,2013-03-14 21:05:00,
2013-03-14 17:10:00,47.5,16.8,30.29,NNE,22,0.0,4.0,29,0.00,,,0.00,Wunderground v.1.15,2013-03-14 21:10:00,
2013-03-14 17:16:00,46.8,16.2,30.29,SW,229,0.0,11.0,29,0.00,,,0.00,Wunderground v.1.15,2013-03-14 21:16:00,
2013-03-14 17:21:00,46.4,16.6,30.28,West,259,0.0,7.0,30,0.00,,,0.00,Wunderground v.1.15,2013-03-14 21:21:00,
2013-03-14 17:26:00,46.1,16.3,30.28,NNW,327,0.0,7.0,30,0.00,,,0.00,Wunderground v.1.15,2013-03-14 21:26:00,
2013-03-14 17:31:00,46.2,16.4,30.28,WNW,289,5.0,6.0,30,0.00,,,0.00,Wunderground v.1.15,2013-03-14 21:31:00,
2013-03-14 17:36:00,46.6,17.5,30.28,WNW,291,5.0,7.0,31,0.00,,,0.00,Wunderground v.1.15,2013-03-14 21:36:00,
2013-03-14 17:41:00,46.9,17.0,30.28,West,266,4.0,11.0,30,0.00,,,0.00,Wunderground v.1.15,2013-03-14 21:41:00,
2013-03-14 17:46:00,46.9,16.3,30.28,WNW,302,3.0,11.0,29,0.00,,,0.00,Wunderground v.1.15,2013-03-14 21:46:00,
2013-03-14 17:52:00,46.8,16.2,30.28,West,274,2.0,8.0,29,0.00,,,0.00,Wunderground v.1.15,2013-03-14 21:52:00,
2013-03-14 17:57:00,46.5,16.7,30.27,WNW,286,0.0,14.0,30,0.00,,,0.00,Wunderground v.1.15,2013-03-14 21:57:00,
2013-03-14 18:02:00,46.5,17.4,30.27,NW,304,8.0,12.0,31,0.00,,,0.00,Wunderground v.1.15,2013-03-14 22:02:00,
2013-03-14 18:07:00,46.3,17.3,30.28,West,265,2.0,14.0,31,0.00,,,0.00,Wunderground v.1.15,2013-03-14 22:07:00,
2013-03-14 18:12:00,46.2,17.2,30.28,West,280,4.0,5.0,31,0.00,,,0.00,Wunderground v.1.15,2013-03-14 22:12:00,
2013-03-14 18:17:00,46.2,14.8,30.28,NW,315,1.0,10.0,28,0.00,,,0.00,Wunderground v.1.15,2013-03-14 22:17:00,
2013-03-14 18:22:00,45.8,16.8,30.29,WNW,293,6.0,12.0,31,0.00,,,0.00,Wunderground v.1.15,2013-03-14 22:22:00,
2013-03-14 18:27:00,45.3,16.4,30.28,NW,306,0.0,12.0,31,0.00,,,0.00,Wunderground v.1.15,2013-03-14 22:27:00,
2013-03-14 18:32:00,45.0,15.4,30.29,NW,306,5.0,7.0,30,0.00,,,0.00,Wunderground v.1.15,2013-03-14 22:32:00,
2013-03-14 18:37:00,44.5,14.9,30.28,NW,315,9.0,16.0,30,0.00,,,0.00,Wunderground v.1.15,2013-03-14 22:37:00,
2013-03-14 18:42:00,44.0,15.3,30.29,WSW,246,8.0,8.0,31,0.00,,,0.00,Wunderground v.1.15,2013-03-14 22:42:00,
2013-03-14 18:47:00,43.6,14.2,30.29,WNW,285,8.0,14.0,30,0.00,,,0.00,Wunderground v.1.15,2013-03-14 22:47:00,
2013-03-14 18:52:00,43.3,15.4,30.28,NW,324,0.0,8.0,32,0.00,,,0.00,Wunderground v.1.15,2013-03-14 22:52:00,
2013-03-14 18:57:00,43.0,14.4,30.28,NNE,28,2.0,8.0,31,0.00,,,0.00,Wunderground v.1.15,2013-03-14 22:57:00,
2013-03-14 19:02:00,42.7,14.8,30.28,West,273,7.0,10.0,32,0.00,,,0.00,Wunderground v.1.15,2013-03-14 23:02:00,
2013-03-14 19:07:00,42.5,14.7,30.28,NW,325,5.0,11.0,32,0.00,,,0.00,Wunderground v.1.15,2013-03-14 23:07:00,
2013-03-14 19:13:00,42.5,15.4,30.28,WNW,286,0.0,6.0,33,0.00,,,0.00,Wunderground v.1.15,2013-03-14 23:13:00,
2013-03-14 19:18:00,42.4,15.3,30.29,WNW,286,4.0,14.0,33,0.00,,,0.00,Wunderground v.1.15,2013-03-14 23:18:00,
2013-03-14 19:23:00,42.1,15.7,30.29,WNW,286,10.0,11.0,34,0.00,,,0.00,Wunderground v.1.15,2013-03-14 23:23:00,
2013-03-14 19:28:00,41.6,15.3,30.29,NW,309,6.0,11.0,34,0.00,,,0.00,Wunderground v.1.15,2013-03-14 23:28:00,
2013-03-14 19:33:00,41.2,15.6,30.29,West,279,5.0,9.0,35,0.00,,,0.00,Wunderground v.1.15,2013-03-14 23:33:00,
2013-03-14 19:38:00,40.9,14.6,30.29,West,266,3.0,9.0,34,0.00,,,0.00,Wunderground v.1.15,2013-03-14 23:38:00,
2013-03-14 19:43:00,40.6,15.0,30.29,WNW,286,3.0,11.0,35,0.00,,,0.00,Wunderground v.1.15,2013-03-14 23:43:00,
2013-03-14 19:48:00,40.3,15.4,30.29,West,280,1.0,11.0,36,0.00,,,0.00,Wunderground v.1.15,2013-03-14 23:48:00,
2013-03-14 19:53:00,40.0,15.2,30.29,WNW,293,0.0,9.0,36,0.00,,,0.00,Wunderground v.1.15,2013-03-14 23:53:00,
2013-03-14 19:58:00,39.8,15.0,30.30,WNW,289,6.0,10.0,36,0.00,,,0.00,Wunderground v.1.15,2013-03-14 23:58:00,
2013-03-14 20:03:00,39.7,15.5,30.30,WNW,283,0.0,9.0,37,0.00,,,0.00,Wunderground v.1.15,2013-03-15 00:03:00,
2013-03-14 20:08:00,39.5,15.3,30.29,WNW,302,4.0,9.0,37,0.00,,,0.00,Wunderground v.1.15,2013-03-15 00:08:00,
2013-03-14 20:13:00,39.4,15.9,30.29,SW,227,3.0,7.0,38,0.00,,,0.00,Wunderground v.1.15,2013-03-15 00:13:00,
2013-03-14 20:18:00,39.2,15.7,30.29,West,259,1.0,9.0,38,0.00,,,0.00,Wunderground v.1.15,2013-03-15 00:18:00,
2013-03-14 20:23:00,39.0,15.5,30.28,West,263,0.0,6.0,38,0.00,,,0.00,Wunderground v.1.15,2013-03-15 00:23:00,
2013-03-14 20:28:00,38.8,15.3,30.28,West,261,1.0,9.0,38,0.00,,,0.00,Wunderground v.1.15,2013-03-15 00:28:00,
2013-03-14 20:33:00,38.8,15.9,30.28,SW,227,0.0,8.0,39,0.00,,,0.00,Wunderground v.1.15,2013-03-15 00:33:00,
2013-03-14 20:38:00,38.5,15.7,30.29,West,273,0.0,8.0,39,0.00,,,0.00,Wunderground v.1.15,2013-03-15 00:38:00,
2013-03-14 20:43:00,38.2,15.4,30.29,WSW,248,1.0,5.0,39,0.00,,,0.00,Wunderground v.1.15,2013-03-15 00:43:00,
2013-03-14 20:48:00,38.0,15.8,30.29,WSW,240,2.0,8.0,40,0.00,,,0.00,Wunderground v.1.15,2013-03-15 00:48:00,
2013-03-14 20:53:00,38.0,15.8,30.29,West,261,3.0,7.0,40,0.00,,,0.00,Wunderground v.1.15,2013-03-15 00:53:00,
2013-03-14 20:58:00,38.1,15.9,30.29,West,267,0.0,7.0,40,0.00,,,0.00,Wunderground v.1.15,2013-03-15 00:58:00,
2013-03-14 21:03:00,38.0,16.4,30.30,WSW,255,0.0,6.0,41,0.00,,,0.00,Wunderground v.1.15,2013-03-15 01:03:00,
2013-03-14 21:08:00,37.9,16.3,30.31,West,263,0.0,6.0,41,0.00,,,0.00,Wunderground v.1.15,2013-03-15 01:08:00,
2013-03-14 21:13:00,37.8,16.7,30.31,South,187,0.0,5.0,42,0.00,,,0.00,Wunderground v.1.15,2013-03-15 01:13:00,
2013-03-14 21:18:00,37.8,15.6,30.31,SW,225,2.0,5.0,40,0.00,,,0.00,Wunderground v.1.15,2013-03-15 01:18:00,
2013-03-14 21:24:00,38.0,15.8,30.31,SSW,210,0.0,4.0,40,0.00,,,0.00,Wunderground v.1.15,2013-03-15 01:24:00,
2013-03-14 21:29:00,38.1,15.9,30.31,West,261,2.0,4.0,40,0.00,,,0.00,Wunderground v.1.15,2013-03-15 01:29:00,
2013-03-14 21:34:00,38.2,16.5,30.32,West,266,3.0,3.0,41,0.00,,,0.00,Wunderground v.1.15,2013-03-15 01:34:00,
2013-03-14 21:39:00,38.1,16.4,30.32,WSW,257,0.0,4.0,41,0.00,,,0.00,Wunderground v.1.15,2013-03-15 01:39:00,
2013-03-14 21:44:00,38.0,16.9,30.32,WSW,257,0.0,1.0,42,0.00,,,0.00,Wunderground v.1.15,2013-03-15 01:44:00,
2013-03-14 21:49:00,37.9,16.8,30.32,WSW,237,2.0,4.0,42,0.00,,,0.00,Wunderground v.1.15,2013-03-15 01:49:00,
2013-03-14 21:54:00,37.8,17.3,30.32,West,260,0.0,2.0,43,0.00,,,0.00,Wunderground v.1.15,2013-03-15 01:54:00,
2013-03-14 21:59:00,37.8,16.7,30.32,West,263,0.0,5.0,42,0.00,,,0.00,Wunderground v.1.15,2013-03-15 01:59:00,
2013-03-14 22:04:00,37.9,16.8,30.32,SSW,211,0.0,3.0,42,0.00,,,0.00,Wunderground v.1.15,2013-03-15 02:04:00,
2013-03-14 22:09:00,37.9,17.4,30.31,SSW,211,0.0,3.0,43,0.00,,,0.00,Wunderground v.1.15,2013-03-15 02:09:00,
2013-03-14 22:14:00,37.9,16.8,30.32,West,269,0.0,4.0,42,0.00,,,0.00,Wunderground v.1.15,2013-03-15 02:14:00,
2013-03-14 22:19:00,38.0,16.9,30.33,WSW,254,2.0,4.0,42,0.00,,,0.00,Wunderground v.1.15,2013-03-15 02:19:00,
2013-03-14 22:24:00,38.1,17.5,30.32,WSW,252,1.0,6.0,43,0.00,,,0.00,Wunderground v.1.15,2013-03-15 02:24:00,
2013-03-14 22:29:00,38.2,17.1,30.32,South,176,1.0,6.0,42,0.00,,,0.00,Wunderground v.1.15,2013-03-15 02:29:00,
2013-03-14 22:34:00,38.3,17.2,30.31,SW,227,0.0,4.0,42,0.00,,,0.00,Wunderground v.1.15,2013-03-15 02:34:00,
2013-03-14 22:39:00,38.3,16.6,30.31,West,274,0.0,4.0,41,0.00,,,0.00,Wunderground v.1.15,2013-03-15 02:39:00,
2013-03-14 22:44:00,38.2,17.1,30.32,SW,233,1.0,7.0,42,0.00,,,0.00,Wunderground v.1.15,2013-03-15 02:44:00,
2013-03-14 22:49:00,38.1,17.0,30.32,West,272,0.0,7.0,42,0.00,,,0.00,Wunderground v.1.15,2013-03-15 02:49:00,
2013-03-14 22:54:00,38.0,17.5,30.31,WSW,253,0.0,4.0,43,0.00,,,0.00,Wunderground v.1.15,2013-03-15 02:54:00,
2013-03-14 22:59:00,37.9,16.8,30.31,West,268,0.0,8.0,42,0.00,,,0.00,Wunderground v.1.15,2013-03-15 02:59:00,
2013-03-14 23:04:00,37.8,17.3,30.31,West,277,0.0,6.0,43,0.00,,,0.00,Wunderground v.1.15,2013-03-15 03:04:00,
2013-03-14 23:09:00,37.6,17.6,30.31,NW,306,0.0,6.0,44,0.00,,,0.00,Wunderground v.1.15,2013-03-15 03:09:00,
2013-03-14 23:14:00,37.3,17.4,30.31,West,281,0.0,3.0,44,0.00,,,0.00,Wunderground v.1.15,2013-03-15 03:14:00,
2013-03-14 23:19:00,37.0,17.6,30.31,NW,304,5.0,5.0,45,0.00,,,0.00,Wunderground v.1.15,2013-03-15 03:19:00,
2013-03-14 23:24:00,36.8,18.4,30.31,WSW,252,0.0,6.0,47,0.00,,,0.00,Wunderground v.1.15,2013-03-15 03:24:00,
2013-03-14 23:29:00,36.6,18.7,30.31,West,279,4.0,7.0,48,0.00,,,0.00,Wunderground v.1.15,2013-03-15 03:29:00,
2013-03-14 23:34:00,36.5,19.6,30.31,West,259,2.0,8.0,50,0.00,,,0.00,Wunderground v.1.15,2013-03-15 03:34:00,
2013-03-14 23:39:00,36.4,20.4,30.31,WNW,300,2.0,8.0,52,0.00,,,0.00,Wunderground v.1.15,2013-03-15 03:39:00,
2013-03-14 23:44:00,36.3,20.8,30.31,WSW,250,1.0,6.0,53,0.00,,,0.00,Wunderground v.1.15,2013-03-15 03:44:00,
2013-03-14 23:49:00,36.4,21.3,30.31,West,267,3.0,7.0,54,0.00,,,0.00,Wunderground v.1.15,2013-03-15 03:49:00,
2013-03-14 23:54:00,36.5,21.8,30.31,NW,316,4.0,9.0,55,0.00,,,0.00,Wunderground v.1.15,2013-03-15 03:54:00,
2013-03-14 23:59:00,36.6,22.4,30.31,NW,311,4.0,9.0,56,0.00,,,0.00,Wunderground v.1.15,2013-03-15 03:59:00,